Regional Weather Roundup
Issued by NWS

Home | Current Version | Previous Version | Text Only | Print | Product List | Glossary On
Versions: 1 2 3 4 5 6 7 8 9 10 11 12 13 14 15 16 17 18 19 20 21 22 23 24 25 26 27 28 29 30 31 32 33 34 35 36 37 38 39 40 41 42 43 44 45 46 47 48 49 50
000
ASUS43 KMPX 221501
RWRMN
WEATHER ROUNDUP FOR MINNESOTA
NATIONAL WEATHER SERVICE TWIN CITIES/CHANHASSEN MN
900 AM CST WED FEB 22 2017


NOTE: "FAIR" INDICATES FEW OR NO CLOUDS BELOW 12,000 FEET WITH NO
SIGNIFICANT WEATHER AND/OR OBSTRUCTIONS TO VISIBILITY. N/A MEANS
CURRENT SKY AND/OR WEATHER CONDITIONS ARE NOT AVAILABLE.

MNZ060>063-068>070-221600-
   Twin Cities Metro

CITY           SKY/WX    TMP DP  RH WIND       PRES   REMARKS
TWIN CITIES    CLOUDY    44  40  85 CALM      29.59S
ST PAUL        PTSUNNY   42  42 100 CALM      29.60S
CRYSTAL        PTSUNNY   41  38  89 N3        29.58F FOG
BLAINE           N/A     43  43 100 N5        29.59F FOG
LAKEVILLE        N/A     41  39  93 CALM      29.60S
EDEN PRAIRIE   CLOUDY    43  40  89 CALM      29.59R
SOUTH ST PAUL  CLOUDY    42  40  93 CALM      29.59F
LAKE ELMO      FAIR      41  41 100 N3        29.60F
$$
MNZ001>005-007-008-013>017-022>024-027-028-221600-
   Northwest Minnesota

CITY           SKY/WX    TMP DP  RH WIND       PRES   REMARKS
BEMIDJI        CLOUDY    34  34  99 CALM      29.66R
HALLOCK        CLOUDY    34  30  86 NE8       29.78R WCI  27
ROSEAU         LGT SNOW  32  28  86 N9        29.75R WCI  24
WARROAD        LGT SNOW  32  28  86 N8        29.75R WCI  25
THIEF RVR FALL MOSUNNY   33  31  92 NE13      29.73R WCI  24
CROOKSTON      CLOUDY    34  34 100 NE9       29.73R WCI  26
FOSSTON        CLOUDY    34  34 100 NE3       29.68R FOG
DETROIT LAKES  CLOUDY    34  34 100 NW6       29.66R FOG     WCI  29
MOORHEAD       FOG       32  30  93 N13       29.69S VSB<1/4 WCI  22
PARK RAPIDS    CLOUDY    37  34  89 N7        29.63S FOG
MAHNOMEN       FOG       33  32  99 CALM      29.67R VSB 1/4
$$
MNZ006-009>011-018-025>026-221600-
   North Central Minnesota

CITY           SKY/WX    TMP DP  RH WIND       PRES   REMARKS
BAUDETTE       LGT SNOW  33  31  92 N7        29.72R FOG     WCI  27
FLAG ISLAND    LGT SNOW  30  28  93 N10       29.73F WCI  21
INTL FALLS     CLOUDY    33  31  92 N6        29.68F WCI  28
WASKISH        CLOUDY    34  32  93 NE8       29.68S WCI  27
BIG FORK       CLOUDY    36  32  87 NE5       29.64F
LONGVILLE      CLOUDY    36  36 100 CALM      29.63S FOG
GRAND RAPIDS   CLOUDY    36  36 100 N3        29.63F
CRANE LAKE     CLOUDY    32  32 100 CALM      29.69F
ORR            CLOUDY    34  30  86 CALM      29.63F
COOK           CLOUDY    34  32  93 CALM      29.65F
WALKER         FOG       35  34  99 N6        29.64R VSB 1/2 WCI  30
$$
MNZ012-019>021-037-221600-
   Northeast Minnesota

CITY           SKY/WX    TMP DP  RH WIND       PRES   REMARKS
DULUTH         MOSUNNY   40  37  89 NE3       29.61F
ELY            CLOUDY    34  32  93 CALM      29.64F
HIBBING        CLOUDY    37  35  92 NE5       29.61F
EVELETH        CLOUDY    39  36  90 NE5       29.63F
DULUTH HARBOR  CLOUDY    36  34  93 CALM      29.65S FOG
TWO HARBORS    CLOUDY    45  37  76 N3        29.61F
SILVER BAY     CLOUDY    37  36  93 CALM      29.61F
GRAND MARAIS     N/A     37  35  92 E3        29.65S
G MARAIS ARPRT CLOUDY    36  28  75 N10       29.63R
$$
MNZ029>031-032-039>041-046>048-054>057-064-221600-
   West Central Minnesota

CITY           SKY/WX    TMP DP  RH WIND       PRES   REMARKS
FERGUS FALLS   CLOUDY    34  34 100 W9        29.69R FOG     WCI  26
WHEATON        FOG       34  34 100 NW7       29.66R VSB<1/4 WCI  28
MORRIS         CLOUDY    36  36 100 CALM      29.60F
ALEXANDRIA     CLOUDY    38  36  92 NE5       29.61F
ELBOW LAKE     FAIR      34  33  97 N5        29.62F WCI  30
WADENA         MOSUNNY   36  36 100 E3        29.62F
GLENWOOD       CLOUDY    36  36 100 N7        29.62S FOG
APPLETON       CLOUDY    37  36  93 N6        29.61F
BENSON         CLOUDY    37  34  87 N6        29.63S
ORTONVILLE     CLOUDY    36  34  93 CALM      29.61F FOG
MADISON        CLOUDY    39  39 100 NW8       29.63R
WILLMAR        FAIR      41  39  93 E6        29.61S
$$
MNZ033>034-036-042>043-049>051-058-059-221600-
   Central Minnesota

CITY           SKY/WX    TMP DP  RH WIND       PRES   REMARKS
ST CLOUD       CLOUDY    37  37 100 N5        29.61F
SAUK CENTRE    FAIR      36  35  99 CALM      29.62S
PAYNESVILLE    CLOUDY    38  38 100 CALM      29.62S
AITKIN         CLOUDY    39  36  87 CALM      29.62S
PINE RIVER     MOSUNNY   36  36 100 CALM      29.67S FOG
BRAINERD       MOSUNNY   36  36 100 CALM      29.63F FOG
STAPLES        MOSUNNY   36  36 100 CALM      29.62F
LONG PRAIRIE   FAIR      34  34 100 NW3       29.62F FOG
LITTLE FALLS   CLOUDY    36  36 100 CALM      29.62F
LITCHFIELD     LGT RAIN  39  39 100 CALM      29.60F
BUFFALO        CLOUDY    39  38  97 NW3       29.63R FOG
MAPLE LAKE     CLOUDY    40  40 100 CALM      29.63R FOG
HUTCHINSON     CLOUDY    40  40 100 CALM      29.62R FOG
$$
MNZ037-044-045-052-053-221600-
   East Central Minnesota

CITY           SKY/WX    TMP DP  RH WIND       PRES   REMARKS
PRINCETON      CLOUDY    39  37  93 N6        29.60F FOG
MORA           PTSUNNY   36  36 100 CALM      29.63F FOG
CAMBRIDGE      LGT RAIN  39  37  93 N6        29.59F
RUSH CITY      FOG       36  36 100 VRB5      29.62S VSB 1/2
MOOSE LAKE     PTSUNNY   36  34  93 CALM      29.60F FOG
HINCKLEY       FAIR      37  37 100 N5        29.62R
CLOQUET        CLOUDY    37  36  93 CALM      29.62S
MCGREGOR       CLOUDY    37  36  93 CALM      29.63S
$$
MNZ071>073-080-081-089-090-097-098-221600-
   Southwest Minnesota

CITY           SKY/WX    TMP DP  RH WIND       PRES   REMARKS
MONTEVIDEO     PTSUNNY   37  37 100 N7        29.60F
GRANITE FALLS  DRIZZLE   41  40  97 N7        29.60F
CANBY          CLOUDY    40  39  95 W8G16     29.63R
MARSHALL       CLOUDY    43  40  89 S6        29.59F
REDWOOD FALLS  CLOUDY    42  38  85 CALM      29.60F
OLIVIA         PTSUNNY   39  37  93 E6        29.58F
PIPESTONE      PTSUNNY   45  36  70 CALM      29.59F
WINDOM         MOSUNNY   45  36  70 W12       29.60F
WORTHINGTON    SUNNY     43  36  76 SW10      29.62F
JACKSON        CLOUDY    45  34  65 W14       29.61S
TRACY          MOSUNNY   45  42  87 S3        29.60F
SLAYTON        PTSUNNY   43  38  82 SW3       29.61F
$$
MNZ065>067-074>077-082>085-091>093-221600-
   South Central Minnesota

CITY           SKY/WX    TMP DP  RH WIND       PRES   REMARKS
NEW ULM        PTSUNNY   39  37  93 CALM      29.61S
ST JAMES       CLOUDY    43  39  87 W8        29.62S
FAIRMONT       PTSUNNY   45  37  73 W16       29.59S
GLENCOE        PTSUNNY   40  40 100 CALM      29.60S FOG
FARIBAULT      PTSUNNY   43  37  81 S6        29.61R
OWATONNA       MOSUNNY   43  36  75 SW5       29.61R
WASECA         CLOUDY    41  36  81 W5        29.62R
ALBERT LEA     MOSUNNY   46  37  71 SW8       29.59F
$$
MNZ078>079-086>088-094>096-221600-
   Southeast Minnesota

CITY           SKY/WX    TMP DP  RH WIND       PRES   REMARKS
ROCHESTER      SUNNY     43  38  82 S14       29.60R
RED WING       CLOUDY    45  39  81 CALM      29.60R
STANTON        MOSUNNY   42  38  85 CALM      29.59R
WINONA         SUNNY     50  36  57 W5        29.61R
AUSTIN         MOSUNNY   43  36  75 S7        29.60S
PRESTON        SUNNY     46  35  66 SW16G24   29.60F
$$
ABBREVIATIONS USED IN REMARKS
   TC - TEMPERATURES IN CELSIUS
  WCI - WIND CHILL INDEX
   HX - HEAT INDEX
  VSB - VISIBILITY
$$




USA.gov is the U.S. government's official web portal to all federal, state and local government web resources and services.